Regional Weather Roundup
Issued by NWS Charleston, WV

Home | Current Version | Previous Version | Graphics & Text | Print | Product List | Glossary On
Versions: 1 2 3 4 5 6 7 8 9 10 11 12 13 14 15 16 17 18 19 20 21 22 23 24 25 26 27 28 29 30 31 32 33 34 35 36 37 38 39 40 41 42 43 44 45 46 47 48 49 50
000
ASUS41 KRLX 221610
RWRRLX
West Virginia Regional Weather Roundup
National Weather Service Charleston WV
1200 PM EDT TUE JUL 22 2014

Note: "fair" indicates few or no clouds below 12,000 feet with no
significant weather and/or obstructions to visibility.

WVZ003-221700-
Northern Panhandle of West Virginia

CITY           SKY/WX    TMP DP  RH WIND       PRES   REMARKS
WHEELING       SUNNY     82  71  69 VRB3      30.14F
$$

WVZ009-221700-
Northwest West Virginia

CITY           SKY/WX    TMP DP  RH WIND       PRES   REMARKS
PARKERSBURG    MOSUNNY  N/A N/A N/A W5        30.17S
$$

WVZ006-221700-
Western West Virginia

CITY           SKY/WX    TMP DP  RH WIND       PRES   REMARKS
HUNTINGTON     SUNNY     83  70  64 S6        30.12F
$$

WVZ015-221700-
West Central West Virginia

CITY           SKY/WX    TMP DP  RH WIND       PRES   REMARKS
CHARLESTON     MOSUNNY   85  68  56 CALM      30.13F
$$

WVZ031-221700-
North Central West Virginia

CITY           SKY/WX    TMP DP  RH WIND       PRES   REMARKS
CLARKSBURG     MOSUNNY   81  67  62 VRB5      30.16F
MORGANTOWN     MOSUNNY   83  66  56 SW5       30.17F
$$

WVZ035-042-045-221700-
South Central West Virginia

CITY           SKY/WX    TMP DP  RH WIND       PRES   REMARKS
BECKLEY        PTSUNNY   78  64  61 MISG      30.23F
BLUEFIELD      MOSUNNY   80  64  58 VRB6      30.26F
LEWISBURG      PTSUNNY   78  63  59 CALM      30.24F
$$

WVZ047-221700-
Northern Mountains of West Virginia

CITY           SKY/WX    TMP DP  RH WIND       PRES   REMARKS
ELKINS         SUNNY     81  65  58 N3        30.21F
$$

WVZ052-221700-
Eastern Panhandle of West Virginia

CITY           SKY/WX    TMP DP  RH WIND       PRES   REMARKS
MARTINSBURG    MOSUNNY   81  68  64 S9        30.16F
PETERSBURG     SUNNY     82  59  46 E3        30.16F
$$


USA.gov is the U.S. government's official web portal to all federal, state and local government web resources and services.